• In Hungary
  • List of Countries
  • For 7 days
  • Water Temperature
  • Satellite Maps
  • Weather Map
  • News
  • Weather Widgets
  • user-avatar
    Login

    Hourly Weather Karasburg

    Today, 21 January, Sunday

    Time Temperature Precipitation Wind Pressure Humidity
    00:00 +26°C° 0 mm 3 mps 677 mmHg 34%
    01:00 +25°C° 0 mm 3 mps 677 mmHg 35%
    02:00 +25°C° 0 mm 2 mps 677 mmHg 36%
    03:00 +25°C° 0 mm 2 mps 676 mmHg 37%
    04:00 +24°C° 0 mm 1 mps 676 mmHg 38%
    05:00 +25°C° 0 mm 1 mps 677 mmHg 36%
    06:00 +26°C° 0 mm 1 mps 677 mmHg 34%
    07:00 +26°C° 0 mm 1 mps 677 mmHg 33%
    08:00 +28°C° 0 mm 1 mps 677 mmHg 29%
    09:00 +31°C° 0 mm 2 mps 678 mmHg 24%
    10:00 +34°C° 0 mm 2 mps 678 mmHg 20%
    11:00 +34°C° 0 mm 3 mps 678 mmHg 19%
    12:00 +35°C° 0 mm 5 mps 677 mmHg 18%
    13:00 +36°C° 0 mm 6 mps 677 mmHg 16%
    14:00 +36°C° 0 mm 6 mps 677 mmHg 17%
    15:00 +36°C° 0 mm 6 mps 677 mmHg 17%
    16:00 +36°C° 0 mm 6 mps 677 mmHg 17%
    17:00 +34°C° 0.2 mm 7 mps 676 mmHg 22%
    18:00 +32°C° 0.2 mm 7 mps 676 mmHg 28%
    19:00 +29°C° 0.2 mm 7 mps 676 mmHg 33%
    20:00 +27°C° 0.2 mm 7 mps 677 mmHg 38%
    21:00 +26°C° 0.2 mm 6 mps 677 mmHg 42%
    22:00 +25°C° 0.2 mm 5 mps 678 mmHg 47%
    23:00 +23°C° 0.3 mm 5 mps 678 mmHg 49%

    Tomorrow, 22 January, Monday

    Time Temperature Precipitation Wind Pressure Humidity
    00:00 +23°C° 0.3 mm 5 mps 677 mmHg 52%
    01:00 +22°C° 0.3 mm 4 mps 677 mmHg 55%
    02:00 +21°C° 0.1 mm 5 mps 677 mmHg 57%
    03:00 +21°C° 0.1 mm 5 mps 677 mmHg 59%
    04:00 +20°C° 0.1 mm 5 mps 677 mmHg 61%
    05:00 +20°C° 0 mm 5 mps 677 mmHg 62%
    06:00 +20°C° 0 mm 5 mps 677 mmHg 62%
    07:00 +19°C° 0 mm 5 mps 678 mmHg 62%
    08:00 +21°C° 0 mm 5 mps 678 mmHg 54%
    09:00 +23°C° 0 mm 5 mps 678 mmHg 45%
    10:00 +26°C° 0 mm 5 mps 679 mmHg 36%
    11:00 +27°C° 0 mm 5 mps 679 mmHg 31%
    12:00 +29°C° 0 mm 6 mps 679 mmHg 27%
    13:00 +30°C° 0 mm 6 mps 679 mmHg 22%
    14:00 +30°C° 0 mm 7 mps 678 mmHg 22%
    15:00 +30°C° 0 mm 7 mps 678 mmHg 23%
    16:00 +31°C° 0 mm 8 mps 677 mmHg 23%
    17:00 +29°C° 0 mm 8 mps 677 mmHg 28%
    18:00 +27°C° 0 mm 8 mps 677 mmHg 33%
    19:00 +26°C° 0 mm 9 mps 677 mmHg 38%
    20:00 +23°C° 0 mm 8 mps 678 mmHg 44%
    21:00 +22°C° 0 mm 7 mps 678 mmHg 49%
    22:00 +20°C° 0 mm 7 mps 678 mmHg 54%
    23:00 +20°C° 0 mm 6 mps 678 mmHg 56%

    Day after tomorrow, 23 January, Tuesday

    Time Temperature Precipitation Wind Pressure Humidity
    00:00 +19°C° 0 mm 6 mps 678 mmHg 58%
    01:00 +17°C° 0 mm 5 mps 678 mmHg 59%
    02:00 +18°C° 0 mm 4 mps 677 mmHg 61%
    03:00 +17°C° 0 mm 3 mps 677 mmHg 64%
    04:00 +17°C° 0 mm 3 mps 677 mmHg 66%
    05:00 +17°C° 0 mm 2 mps 678 mmHg 64%
    06:00 +17°C° 0 mm 2 mps 678 mmHg 62%
    07:00 +18°C° 0 mm 2 mps 678 mmHg 60%
    08:00 +20°C° 0 mm 2 mps 678 mmHg 51%
    09:00 +21°C° 0 mm 2 mps 679 mmHg 42%
    10:00 +24°C° 0 mm 2 mps 679 mmHg 33%
    11:00 +26°C° 0 mm 2 mps 678 mmHg 28%
    12:00 +28°C° 0 mm 3 mps 678 mmHg 22%
    13:00 +29°C° 0 mm 4 mps 678 mmHg 17%
    14:00 +30°C° 0 mm 4 mps 677 mmHg 16%
    15:00 +30°C° 0 mm 5 mps 677 mmHg 15%
    16:00 +32°C° 0 mm 6 mps 677 mmHg 14%
    17:00 +30°C° 0 mm 6 mps 677 mmHg 18%
    18:00 +29°C° 0 mm 7 mps 677 mmHg 21%
    19:00 +28°C° 0 mm 7 mps 677 mmHg 25%
    20:00 +26°C° 0 mm 7 mps 677 mmHg 33%
    21:00 +23°C° 0 mm 7 mps 678 mmHg 41%
    22:00 +22°C° 0 mm 7 mps 678 mmHg 50%
    23:00 +21°C° 0 mm 6 mps 678 mmHg 51%

    24 January, Wednesday

    Time Temperature Precipitation Wind Pressure Humidity
    00:00 +21°C° 0 mm 5 mps 677 mmHg 53%
    01:00 +20°C° 0 mm 5 mps 677 mmHg 55%
    02:00 +19°C° 0 mm 4 mps 677 mmHg 57%
    03:00 +19°C° 0 mm 3 mps 677 mmHg 60%
    04:00 +18°C° 0 mm 3 mps 677 mmHg 62%
    05:00 +19°C° 0 mm 3 mps 677 mmHg 61%
    06:00 +19°C° 0 mm 2 mps 678 mmHg 60%
    07:00 +19°C° 0 mm 2 mps 678 mmHg 59%
    08:00 +21°C° 0 mm 2 mps 679 mmHg 51%
    09:00 +24°C° 0 mm 1 mps 679 mmHg 43%
    10:00 +26°C° 0 mm 1 mps 679 mmHg 35%
    11:00 +27°C° 0 mm 2 mps 679 mmHg 29%
    12:00 +29°C° 0 mm 3 mps 679 mmHg 23%
    13:00 +32°C° 0 mm 4 mps 679 mmHg 17%
    14:00 +33°C° 0 mm 4 mps 678 mmHg 16%
    15:00 +33°C° 0 mm 5 mps 678 mmHg 15%
    16:00 +34°C° 0 mm 6 mps 678 mmHg 14%
    17:00 +33°C° 0 mm 6 mps 678 mmHg 15%
    18:00 +32°C° 0 mm 6 mps 678 mmHg 17%
    19:00 +30°C° 0 mm 6 mps 678 mmHg 19%
    20:00 +28°C° 0 mm 6 mps 678 mmHg 26%
    21:00 +27°C° 0 mm 6 mps 678 mmHg 32%
    22:00 +26°C° 0 mm 7 mps 679 mmHg 39%
    23:00 +24°C° 0 mm 6 mps 678 mmHg 43%

    25 January, Thursday

    Time Temperature Precipitation Wind Pressure Humidity
    00:00 +23°C° 0 mm 5 mps 678 mmHg 46%
    01:00 +22°C° 0 mm 4 mps 678 mmHg 50%
    02:00 +22°C° 0 mm 4 mps 678 mmHg 51%
    03:00 +21°C° 0 mm 3 mps 678 mmHg 52%
    04:00 +21°C° 0 mm 2 mps 678 mmHg 53%
    05:00 +21°C° 0 mm 2 mps 678 mmHg 50%
    06:00 +23°C° 0 mm 2 mps 679 mmHg 48%
    07:00 +23°C° 0 mm 2 mps 679 mmHg 45%
    08:00 +25°C° 0 mm 2 mps 679 mmHg 39%
    09:00 +27°C° 0 mm 2 mps 679 mmHg 33%
    10:00 +29°C° 0 mm 3 mps 680 mmHg 27%
    11:00 +31°C° 0 mm 2 mps 679 mmHg 24%
    12:00 +34°C° 0 mm 2 mps 679 mmHg 21%
    13:00 +34°C° 0 mm 1 mps 679 mmHg 18%
    14:00 +36°C° 0 mm 2 mps 678 mmHg 18%
    15:00 +36°C° 0 mm 2 mps 678 mmHg 17%
    16:00 +37°C° 0 mm 3 mps 677 mmHg 16%
    17:00 +36°C° 0 mm 3 mps 678 mmHg 17%
    18:00 +36°C° 0 mm 4 mps 678 mmHg 18%
    19:00 +35°C° 0 mm 4 mps 678 mmHg 18%
    20:00 +34°C° 0 mm 5 mps 678 mmHg 20%
    21:00 +33°C° 0 mm 5 mps 678 mmHg 22%
    22:00 +30°C° 0 mm 6 mps 678 mmHg 24%
    23:00 +29°C° 0 mm 5 mps 678 mmHg 28%

    26 January, Friday

    Time Temperature Precipitation Wind Pressure Humidity
    00:00 +28°C° 0 mm 4 mps 678 mmHg 33%
    01:00 +27°C° 0 mm 4 mps 678 mmHg 37%
    02:00 +27°C° 0 mm 3 mps 678 mmHg 39%
    03:00 +26°C° 0 mm 3 mps 678 mmHg 41%
    04:00 +26°C° 0 mm 3 mps 678 mmHg 43%
    05:00 +26°C° 0 mm 3 mps 678 mmHg 42%
    06:00 +26°C° 0 mm 2 mps 678 mmHg 42%
    07:00 +26°C° 0 mm 2 mps 679 mmHg 41%
    08:00 +28°C° 0 mm 2 mps 679 mmHg 36%
    09:00 +30°C° 0 mm 2 mps 679 mmHg 31%
    10:00 +32°C° 0 mm 2 mps 679 mmHg 27%
    11:00 +34°C° 0 mm 2 mps 679 mmHg 25%
    12:00 +35°C° 0 mm 3 mps 679 mmHg 22%
    13:00 +37°C° 0 mm 3 mps 679 mmHg 20%
    14:00 +37°C° 0 mm 3 mps 678 mmHg 20%
    15:00 +37°C° 0 mm 4 mps 678 mmHg 20%
    16:00 +37°C° 0 mm 4 mps 677 mmHg 20%
    17:00 +36°C° 0 mm 6 mps 678 mmHg 21%
    18:00 +34°C° 0 mm 7 mps 678 mmHg 23%
    19:00 +33°C° 0 mm 8 mps 678 mmHg 25%
    20:00 +31°C° 0 mm 8 mps 678 mmHg 28%
    21:00 +29°C° 0 mm 7 mps 678 mmHg 31%
    22:00 +27°C° 0 mm 6 mps 679 mmHg 35%
    23:00 +26°C° 0 mm 5 mps 678 mmHg 36%
    Show more